Вернуться в каталог

OPS 4682 DEB

АктивенPO
NORAD 38428·DEBRIS·🇺🇸 United States

Запущен Apr 3, 1965 с Vandenberg Space Force Base

Loading…

Ближайшие Пролёты (ближайшие 24 часа)

TLE

УстаревающийSource: Space-Track

Эпоха: Sep 9, 2026, 07:56 UTC

1 38428U 65027EH  26252.33121908  .00000616  00000-0  20856-2 0  9995
2 38428  90.2564  15.2913 0044703 193.6596 166.3319 12.97526559608825

Отслеживайте OPS 4682 DEB в реальном времени с AllMySat

Download on the App Store